Regional Weather Roundup
Issued by NWS Green Bay, WI

Home | Current Version | Previous Version | Graphics & Text | Print | Product List | Glossary Off
Versions: 1 2 3 4 5 6 7 8 9 10 11 12 13 14 15 16 17 18 19 20 21 22 23 24 25 26 27 28 29 30 31 32 33 34 35 36 37 38 39 40 41 42 43 44 45 46 47 48 49 50

000
ASUS43 KGRB 221810
RWRGRB

NORTH-CENTRAL AND NORTHEAST WISCONSIN REGIONAL WEATHER ROUNDUP
NATIONAL WEATHER SERVICE GREEN BAY WI
1200 PM CST MON DEC 22 2014

WIZ005-009-010>012-018-019-221900-
NORTH CENTRAL WISCONSIN

CITY           SKY/WX    TMP DP  RH WIND       PRES   REMARKS
IRONWOOD       CLOUDY    36  32  87 SE8       29.71F
MANITOWISH WTR CLOUDY    32  32 100 SE8       29.75F FOG
ARBOR VITAE    CLOUDY    34  32  94 SE9       29.76F FOG
EAGLE RIVER    CLOUDY    32  32 100 SE5       29.76F FOG
LAND O LAKES   CLOUDY    32  32  99 S9        29.77F FOG
RHINELANDER    CLOUDY    31  31 100 SE8       29.77F FOG
PHILLIPS       CLOUDY    32  32  99 SE10      29.74F FOG
ANTIGO         FOG       32  32 100 SE13      29.79F VSB 3/4
TOMAHAWK       CLOUDY    32  31  96 CALM      29.77F FOG
MERRILL        CLOUDY    33  32  96 SE7       29.77F FOG
$$

WIZ013-073-221900-
NORTHEAST WISCONSIN

CITY           SKY/WX    TMP DP  RH WIND       PRES   REMARKS
IRON MOUNTAIN  CLOUDY    34  32  92 SE7       29.83F FOG
MARINETTE      CLOUDY    36  32  87 S12       29.87F
OCONTO         CLOUDY    36  33  90 SE10G17   29.86F
$$

WIZ017-030-035>037-045-221900-
CENTRAL WISCONSIN

CITY           SKY/WX    TMP DP  RH WIND       PRES   REMARKS
MEDFORD        CLOUDY    32  32  98 SE6       29.74F FOG
WAUSAU         CLOUDY    34  32  92 SE8       29.76F FOG
MOSINEE        CLOUDY    34  34 100 SE8       29.78F FOG
MARSHFIELD     CLOUDY    36  32  85 SE12      29.74F FOG
WISC RAPIDS    CLOUDY    37  30  75 SE8       29.77F
STEVENS POINT  CLOUDY    33  31  92 E10G17    29.78F FOG
WAUPACA        CLOUDY    37  32  81 SE6       29.81F HAZE
SHAWANO        CLOUDY    38  34  84 SE10G16   29.83F FOG
CLINTONVILLE   CLOUDY    36  32  87 SE8       29.82F FOG
$$

WIZ038-039-048-051-221900-
FOX VALLEY

CITY           SKY/WX    TMP DP  RH WIND       PRES   REMARKS
NWS GREEN BAY  CLOUDY    37  33  85 SE10      29.85F FOG
APPLETON       CLOUDY    36  34  93 SE12      29.83F FOG
OSHKOSH        CLOUDY    37  32  82 SE13      29.82F HAZE
FOND DU LAC    CLOUDY    38  32  79 SE17G23   29.82F
$$

WIZ022-050-052-221900-
EAST CENTRAL WISCONSIN

CITY           SKY/WX    TMP DP  RH WIND       PRES   REMARKS
STURGEON BAY   CLOUDY    36  28  75 SE17      29.89F
MANITOWOC      CLOUDY    36  33  89 SE13      29.87F
SHEBOYGAN      CLOUDY    36  31  82 SE13      29.86F HAZE
$$

LMZ563-521-522-541>543-221900-
LAKESHORE

STATION/POSITION TIME  TEMP    WIND        PRES    VSBY  WAVE
                       AIR SEA DIR/SP/G                  HT/PER
                 (UTC) (F)     (DEG/KT/KT) (MB)    (MI)  (FT/S)
SHEBOYGAN LKSHOR 1800   36 37  130/ 18/ 19 1011.7F
KEWAUNEE LKSHORE 1800   35     160/ 14/ 18 1011.1F
ALGOMA MARINA    1800          190/ 18/ 23   N/A
NORTHPORT PIER   1800   36     160/ 13/ 19 1012.9F
SISTER BAY LKSHO 1800          200/ 15/ 22   N/A
CHAMBERS ISLAND  1800   36     140/  7/ 13 1012.2F
MENOMINEE LKSHOR 1800   35     140/ 15/ 16 1012.3F
$$



USA.gov is the U.S. government's official web portal to all federal, state and local government web resources and services.